Regional Weather Roundup
Issued by NWS

Home | Current Version | Previous Version | Text Only | Print | Product List | Glossary On
Versions: 1 2 3 4 5 6 7 8 9 10 11 12 13 14 15 16 17 18 19 20 21 22 23 24 25 26 27 28 29 30 31 32 33 34 35 36 37 38 39 40 41 42 43 44 45 46 47 48 49 50
000
ASUS43 KOAX 240310
RWRNE

WEATHER ROUNDUP FOR NEBRASKA
NATIONAL WEATHER SERVICE OMAHA NE
1000 PM CDT WED APR 23 2014

NOTES: SATELLITE DATA IS BEING USED TO AUGMENT CLOUD COVER ABOVE
       12000 FEET.
       "FAIR" INDICATES FEW OR NO CLOUDS BELOW 12,000 FEET WITH NO
       SIGNIFICANT WEATHER AND/OR OBSTRUCTIONS TO VISIBILITY.

  * THESE STATIONS DO NOT REPORT WEATHER SUCH AS RAIN...SNOW OR FOG.

NEZ001>004-019>022-054>056-240400-
NEBRASKA PANHANDLE

CITY           SKY/WX    TMP DP  RH WIND       PRES   REMARKS
SCOTTSBLUFF    CLOUDY    56   9  15 W14       29.78R
ALLIANCE       CLOUDY    53  31  42 NW8       29.75R
CHADRON        CLOUDY    49  40  71 CALM      29.77R
KIMBALL        CLOUDY    52   3  13 NW20G29   29.82R
SIDNEY         CLOUDY    55  16  21 N23       29.80R
$$

NEZ057>060-069>072-079>082-240400-
SOUTHWEST NEBRASKA

CITY           SKY/WX    TMP DP  RH WIND       PRES   REMARKS
NORTH PLATTE   CLOUDY    63  38  39 N20G28    29.68R
IMPERIAL       MOCLDY    54  33  45 NW37G48   29.74R
LEXINGTON      LGT RAIN  63  41  45 N22G32    29.63R
MCCOOK         CLOUDY    62  39  42 N15       29.63R
OGALLALA       CLOUDY    55  32  42 NW21      29.75R
$$

NEZ005>010-023>029-035>040-094-240400-
NORTH CENTRAL NEBRASKA

CITY           SKY/WX    TMP DP  RH WIND       PRES   REMARKS
VALENTINE      MOCLDY    55  40  56 NW13G21   29.71R
AINSWORTH      CLOUDY    58  41  54 NW23G31   29.68R
BROKEN BOW     CLOUDY    66  29  24 NW24      29.64R
O`NEILL        CLOUDY    61  46  57 W9        29.62R
ORD            CLOUDY    64  53  67 E9        29.55R
THEDFORD       MOCLDY    59  42  53 N16G28    29.71R
$$

NEZ041-046>049-061>064-073>077-083>087-240400-
SOUTH CENTRAL NEBRASKA

CITY           SKY/WX    TMP DP  RH WIND       PRES   REMARKS
GRAND ISLAND   RAIN      59  55  87 SE15G22   29.63R FOG
AURORA         TSTM      59  56  90 SE6       29.65R
HASTINGS       TSTM      59  55  87 SE8       29.62R
HEBRON         CLOUDY    72  45  37 SE7       29.52F
HOLDREGE       LGT RAIN  60  53  77 CALM      29.59R
KEARNEY *      CLOUDY    61  55  82 W8        29.62R
YORK           LGT RAIN  55  54  94 NE16G26   29.63S
$$

NEZ011>018-030>034-042>045-240400-
NORTHEAST NEBRASKA

CITY           SKY/WX    TMP DP  RH WIND       PRES   REMARKS
NORFOLK        CLOUDY    55  48  77 NE5       29.63R
ALBION         CLOUDY    60  51  72 SE9       29.60R
BLAIR          CLOUDY    53  44  72 NE15G21   29.65F
COLUMBUS *     CLOUDY    57  50  77 SE16      29.66S
FREMONT        CLOUDY    53  47  82 N8        29.69R
TEKAMAH        LGT RAIN  53  46  77 N9        29.72R
$$

NEZ050>053-065>068-078-088>093-240400-
SOUTHEAST NEBRASKA

CITY           SKY/WX    TMP DP  RH WIND       PRES   REMARKS
LINCOLN        CLOUDY    56  49  77 N10       29.61R
OMAHA EPPLEY   CLOUDY    55  43  63 E9        29.66F
BEATRICE       CLOUDY    69  49  48 SE16      29.55S
FALLS CITY     CLOUDY    67  44  43 SE15G24   29.64R
NEBRASKA CITY  MOCLDY    64  44  47 SE16G22   29.63S
PLATTSMOUTH    MOCLDY    58  44  59 E12       29.63S
$$

NEZ044-045-051>053-067-240400-
OMAHA AREA

CITY           SKY/WX    TMP DP  RH WIND       PRES   REMARKS
OMAHA EPPLEY   CLOUDY    55  43  63 E9        29.66F
BLAIR          CLOUDY    53  44  72 NE15G21   29.65F
FREMONT        CLOUDY    53  47  82 N8        29.69R
MILLARD        CLOUDY    56  44  62 E5        29.64F
OFFUTT AFB     CLOUDY    56  46  69 E12       29.64S
PLATTSMOUTH    MOCLDY    58  44  59 E12       29.63S
WAHOO          LGT RAIN  53  47  80 N14       29.67R
$$



USA.gov is the U.S. government's official web portal to all federal, state and local government web resources and services.